RYR3CE LPPR-EGCC

Flight info

Callsign RYR3CE
Flight time 2h 12m
Altitude 37000
Route TURO9E TURON P600 ASDEB DCT ADVAT/M081F370 T290 GELPO DCT JABEX/N0469F370 DCT BIBLA DCT DIRUM DCT BOFUM Q37 MALUD MALU1M
Aircraft B738/M-V/N

Departure

Time 2026-05-04 10:36
Airport Francisco de Sá Carneiro Airport (LPPR)

Arrival

Time 2026-05-04 12:48
Airport Manchester Airport (EGCC)
Time Latitude Longitude Altitude Speed Heading
2026-05-04 10:02 41.23549 -8.67239 234 ft 0 kts 111°
2026-05-04 10:29 41.23553 -8.67253 235 ft 4 kts 110°
2026-05-04 10:29 41.23563 -8.67286 238 ft 4 kts 111°
2026-05-04 10:29 41.23574 -8.67318 239 ft 4 kts 127°
2026-05-04 10:29 41.23589 -8.67336 234 ft 3 kts 198°
2026-05-04 10:30 41.23592 -8.67335 237 ft 0 kts 209°
2026-05-04 10:33 41.23572 -8.67360 237 ft 5 kts 240°
2026-05-04 10:33 41.23582 -8.67401 234 ft 5 kts 319°
2026-05-04 10:33 41.23617 -8.67437 231 ft 8 kts 319°
2026-05-04 10:34 41.23627 -8.67511 229 ft 9 kts 262°
2026-05-04 10:34 41.23616 -8.67589 230 ft 8 kts 257°
2026-05-04 10:34 41.23604 -8.67663 228 ft 8 kts 259°
2026-05-04 10:34 41.23593 -8.67736 228 ft 8 kts 257°
2026-05-04 10:35 41.23596 -8.67802 230 ft 8 kts 319°
2026-05-04 10:35 41.23656 -8.67824 225 ft 12 kts 349°
2026-05-04 10:35 41.23892 -8.67886 217 ft 70 kts 349°
2026-05-04 10:35 41.24605 -8.68072 205 ft 136 kts 349°
2026-05-04 10:36 41.25720 -8.68357 264 ft 184 kts 349°
2026-05-04 10:36 41.26965 -8.68649 1229 ft 178 kts 348°
2026-05-04 10:36 41.28172 -8.68976 2200 ft 174 kts 346°
2026-05-04 10:36 41.29316 -8.69347 3206 ft 166 kts 344°
2026-05-04 10:37 41.30525 -8.69683 3634 ft 193 kts 347°
2026-05-04 10:37 41.31910 -8.70023 3945 ft 216 kts 348°
2026-05-04 10:37 41.33430 -8.70403 4352 ft 231 kts 348°
2026-05-04 10:37 41.35056 -8.70818 4825 ft 248 kts 347°
2026-05-04 10:39 41.46143 -8.71903 9462 ft 286 kts
2026-05-04 10:39 41.48104 -8.71372 10221 ft 290 kts
2026-05-04 10:39 41.50135 -8.70833 10595 ft 309 kts
2026-05-04 10:40 41.52323 -8.70264 10764 ft 332 kts
2026-05-04 10:40 41.54669 -8.69663 10942 ft 354 kts
2026-05-04 10:40 41.57165 -8.69029 11114 ft 374 kts
2026-05-04 10:40 41.59767 -8.68370 11517 ft 386 kts
2026-05-04 10:41 41.62422 -8.67695 12153 ft 390 kts
2026-05-04 10:41 41.65102 -8.67011 12835 ft 394 kts
2026-05-04 10:41 41.67812 -8.66320 13534 ft 398 kts
2026-05-04 10:41 41.70548 -8.65621 14154 ft 403 kts
2026-05-04 10:42 41.73315 -8.64914 14732 ft 407 kts
2026-05-04 10:42 41.76110 -8.64198 15307 ft 411 kts
2026-05-04 10:42 41.78933 -8.63476 15908 ft 415 kts
2026-05-04 10:42 41.81779 -8.62746 16487 ft 419 kts
2026-05-04 10:43 41.84654 -8.62008 17062 ft 423 kts
2026-05-04 10:44 42.05531 -8.56630 20607 ft 448 kts
2026-05-04 10:45 42.08613 -8.55902 21046 ft 451 kts
2026-05-04 10:45 42.11736 -8.55359 21461 ft 453 kts
2026-05-04 10:45 42.14883 -8.54900 21891 ft 456 kts
2026-05-04 10:45 42.18051 -8.54456 22307 ft 459 kts
2026-05-04 10:46 42.21248 -8.53996 22691 ft 463 kts
2026-05-04 10:46 42.24462 -8.53513 23077 ft 466 kts
2026-05-04 10:46 42.27653 -8.53018 23452 ft 470 kts
2026-05-04 10:46 42.30910 -8.52502 23812 ft 472 kts
2026-05-04 10:47 42.34186 -8.51980 24140 ft 475 kts
2026-05-04 10:47 42.37479 -8.51453 24466 ft 477 kts
2026-05-04 10:47 42.40787 -8.50925 24815 ft 480 kts
2026-05-04 10:47 42.44109 -8.50396 25122 ft 482 kts
2026-05-04 10:49 42.66956 -8.54940 27377 ft 478 kts 339°
2026-05-04 10:49 42.70108 -8.56172 27847 ft 476 kts 339°
2026-05-04 10:50 42.73287 -8.57399 28294 ft 475 kts 339°
2026-05-04 10:51 42.95555 -8.65898 30809 ft 474 kts 339°
2026-05-04 10:52 42.98725 -8.67111 31143 ft 473 kts 339°
2026-05-04 10:52 43.01890 -8.68324 31443 ft 472 kts 339°
2026-05-04 10:52 43.05056 -8.69539 31739 ft 472 kts 339°
2026-05-04 10:54 43.27136 -8.78051 33786 ft 470 kts 339°
2026-05-04 10:54 43.30279 -8.79268 34086 ft 469 kts 339°
2026-05-04 10:56 43.52226 -8.87801 35600 ft 468 kts 340°
2026-05-04 10:56 43.55356 -8.89024 35800 ft 468 kts 340°
2026-05-04 10:56 43.58488 -8.90248 36017 ft 467 kts 340°
2026-05-04 10:57 43.61610 -8.91470 36227 ft 467 kts 340°
2026-05-04 10:57 43.64734 -8.92694 36400 ft 467 kts 340°
2026-05-04 10:57 43.67859 -8.93919 36595 ft 467 kts 340°
2026-05-04 10:57 43.70981 -8.95145 36802 ft 466 kts 340°
2026-05-04 10:58 43.74094 -8.96369 36995 ft 466 kts 341°
2026-05-04 10:58 43.80354 -8.98834 37054 ft 469 kts 341°
2026-05-04 10:59 43.86612 -9.01302 37053 ft 466 kts 341°
2026-05-04 10:59 43.91790 -9.03348 37054 ft 464 kts 341°
2026-05-04 11:00 43.98003 -9.05809 37058 ft 463 kts 341°
2026-05-04 11:02 44.22678 -9.15638 37056 ft 463 kts 341°
2026-05-04 11:05 44.69525 -9.34533 37039 ft 464 kts 341°
2026-05-04 11:06 44.75716 -9.37054 37040 ft 462 kts 341°
2026-05-04 11:06 44.81879 -9.39569 37038 ft 460 kts 341°
2026-05-04 11:08 45.03587 -9.47238 37041 ft 467 kts 356°
2026-05-04 11:10 45.26539 -9.47221 37027 ft 474 kts 358°
2026-05-04 11:12 45.52904 -9.47453 37023 ft 472 kts 358°
2026-05-04 11:12 45.59423 -9.47509 37017 ft 471 kts 358°
2026-05-04 11:13 45.65976 -9.47566 37022 ft 470 kts 358°
2026-05-04 11:13 45.72515 -9.47623 37016 ft 469 kts 358°
2026-05-04 11:14 45.73616 -9.47632 37011 ft 469 kts 358°
2026-05-04 11:16 46.05022 -9.47907 37021 ft 466 kts 358°
2026-05-04 11:16 46.11501 -9.47964 37013 ft 465 kts 358°
2026-05-04 11:17 46.17978 -9.48021 37005 ft 465 kts 358°
2026-05-04 11:19 46.43882 -9.48251 37010 ft 465 kts 358°
2026-05-04 11:19 46.50364 -9.48309 37004 ft 466 kts 358°
2026-05-04 11:20 46.56803 -9.48366 37008 ft 466 kts 358°
2026-05-04 11:20 46.63257 -9.48425 37002 ft 461 kts 359°
2026-05-04 11:22 46.88443 -9.48652 37016 ft 453 kts 360°
2026-05-04 11:23 46.94795 -9.48709 37016 ft 459 kts 360°
2026-05-04 11:25 47.17311 -9.48915 37003 ft 462 kts
2026-05-04 11:25 47.23692 -9.48973 37001 ft 461 kts
2026-05-04 11:27 47.52364 -9.49238 37009 ft 455 kts
2026-05-04 11:28 47.58697 -9.49297 37008 ft 455 kts
2026-05-04 11:28 47.65023 -9.49356 37007 ft 454 kts
2026-05-04 11:29 47.71340 -9.49414 37007 ft 454 kts
2026-05-04 11:29 47.77656 -9.49474 37006 ft 454 kts
2026-05-04 11:33 48.21896 -9.49892 37014 ft 455 kts
2026-05-04 11:33 48.28228 -9.49952 37018 ft 455 kts
2026-05-04 11:34 48.34564 -9.50013 37020 ft 455 kts
2026-05-04 11:34 48.40899 -9.50073 37018 ft 455 kts
2026-05-04 11:35 48.47192 -9.50134 37019 ft 455 kts
2026-05-04 11:35 48.53521 -9.50195 37020 ft 455 kts
2026-05-04 11:36 48.59852 -9.50256 37021 ft 454 kts
2026-05-04 11:36 48.66177 -9.50312 37021 ft 454 kts
2026-05-04 11:37 48.72491 -9.50313 37024 ft 454 kts
2026-05-04 11:37 48.78803 -9.50303 37028 ft 453 kts
2026-05-04 11:38 48.85108 -9.50300 37026 ft 453 kts
2026-05-04 11:38 48.91409 -9.50300 37036 ft 452 kts
2026-05-04 11:39 48.97703 -9.50300 37035 ft 452 kts
2026-05-04 11:41 49.19258 -9.45188 37037 ft 448 kts 11°
2026-05-04 11:41 49.25398 -9.43523 37040 ft 448 kts 11°
2026-05-04 11:42 49.31534 -9.41875 37042 ft 447 kts 11°
2026-05-04 11:42 49.37667 -9.40227 37045 ft 447 kts 11°
2026-05-04 11:43 49.43795 -9.38575 37046 ft 447 kts 11°
2026-05-04 11:43 49.49917 -9.36919 37039 ft 447 kts 11°
2026-05-04 11:44 49.56040 -9.35258 37048 ft 446 kts 11°
2026-05-04 11:44 49.62156 -9.33594 37041 ft 446 kts 11°
2026-05-04 11:45 49.68272 -9.31927 37048 ft 446 kts 11°
2026-05-04 11:45 49.74391 -9.30255 37044 ft 446 kts 11°
2026-05-04 11:46 49.80510 -9.28578 37045 ft 446 kts 11°
2026-05-04 11:46 49.86628 -9.26896 37050 ft 447 kts 11°
2026-05-04 11:47 49.92749 -9.25211 37052 ft 447 kts 12°
2026-05-04 11:47 49.98828 -9.23532 37052 ft 447 kts 12°
2026-05-04 11:48 50.04948 -9.21837 37054 ft 447 kts 12°
2026-05-04 11:48 50.11070 -9.20138 37055 ft 447 kts 12°
2026-05-04 11:49 50.16201 -9.18710 37059 ft 447 kts 12°
2026-05-04 11:49 50.22326 -9.17002 37055 ft 447 kts 12°
2026-05-04 11:50 50.28449 -9.15290 37058 ft 447 kts 12°
2026-05-04 11:50 50.34530 -9.13585 37063 ft 447 kts 12°
2026-05-04 11:51 50.40648 -9.11865 37063 ft 446 kts 12°
2026-05-04 11:51 50.46760 -9.10142 37063 ft 446 kts 12°
2026-05-04 11:52 50.52867 -9.08417 37067 ft 446 kts 12°
2026-05-04 11:52 50.58971 -9.06687 37067 ft 445 kts 12°
2026-05-04 11:53 50.65063 -9.04957 37067 ft 445 kts 12°
2026-05-04 11:53 50.71151 -9.03223 37075 ft 444 kts 12°
2026-05-04 11:55 50.95410 -8.96266 37074 ft 442 kts 12°
2026-05-04 11:56 51.01409 -8.94534 37078 ft 441 kts 12°
2026-05-04 11:56 51.07442 -8.92789 37073 ft 440 kts 12°
2026-05-04 11:57 51.13338 -8.90341 37076 ft 436 kts 24°
2026-05-04 11:57 51.18556 -8.85545 37087 ft 433 kts 37°
2026-05-04 11:58 51.23423 -8.79889 37072 ft 433 kts 37°
2026-05-04 11:58 51.28284 -8.74205 37078 ft 433 kts 37°
2026-05-04 11:59 51.33155 -8.68548 37063 ft 433 kts 37°
2026-05-04 11:59 51.38038 -8.62895 37070 ft 433 kts 37°
2026-05-04 12:00 51.41273 -8.59146 37074 ft 433 kts 37°
2026-05-04 12:00 51.45989 -8.53671 37071 ft 434 kts 37°
2026-05-04 12:01 51.50902 -8.47950 37071 ft 434 kts 37°
2026-05-04 12:02 51.67950 -8.27976 37069 ft 434 kts 37°
2026-05-04 12:03 51.72818 -8.22237 37077 ft 433 kts 37°
2026-05-04 12:03 51.77679 -8.16490 37076 ft 433 kts 38°
2026-05-04 12:04 51.82539 -8.10729 37067 ft 434 kts 38°
2026-05-04 12:04 51.87401 -8.04951 37065 ft 434 kts 38°
2026-05-04 12:05 51.92256 -7.99164 37063 ft 433 kts 38°
2026-05-04 12:05 51.97103 -7.93371 37076 ft 433 kts 38°
2026-05-04 12:06 52.01946 -7.87567 37075 ft 433 kts 38°
2026-05-04 12:06 52.06785 -7.81752 37070 ft 433 kts 38°
2026-05-04 12:07 52.11591 -7.75961 37075 ft 432 kts 38°
2026-05-04 12:07 52.16425 -7.70119 37073 ft 432 kts 38°
2026-05-04 12:08 52.21255 -7.64267 37072 ft 433 kts 38°
2026-05-04 12:08 52.26083 -7.58400 37080 ft 433 kts 38°
2026-05-04 12:09 52.30909 -7.52519 37076 ft 433 kts 38°
2026-05-04 12:09 52.35741 -7.46615 37079 ft 434 kts 38°
2026-05-04 12:10 52.40578 -7.40688 37077 ft 435 kts 38°
2026-05-04 12:10 52.45418 -7.34740 37074 ft 435 kts 38°
2026-05-04 12:11 52.50263 -7.28770 37076 ft 436 kts 38°
2026-05-04 12:11 52.55112 -7.22778 37079 ft 436 kts 38°
2026-05-04 12:12 52.59960 -7.16770 37080 ft 437 kts 38°
2026-05-04 12:12 52.64812 -7.10740 37079 ft 437 kts 38°
2026-05-04 12:14 52.84235 -6.86427 37081 ft 439 kts 38°
2026-05-04 12:15 52.89066 -6.80336 37080 ft 439 kts 38°
2026-05-04 12:15 52.93921 -6.74197 37084 ft 439 kts 38°
2026-05-04 12:16 52.98773 -6.68034 37082 ft 439 kts 39°
2026-05-04 12:16 53.02972 -6.60725 37091 ft 438 kts 52°
2026-05-04 12:17 53.06684 -6.52681 37085 ft 438 kts 53°
2026-05-04 12:17 53.10390 -6.44617 37078 ft 439 kts 52°
2026-05-04 12:18 53.14118 -6.36569 37078 ft 439 kts 52°
2026-05-04 12:18 53.17858 -6.28514 37085 ft 440 kts 52°
2026-05-04 12:19 53.21599 -6.20435 37082 ft 440 kts 52°
2026-05-04 12:19 53.25335 -6.12341 37084 ft 440 kts 52°
2026-05-04 12:20 53.29045 -6.04276 37080 ft 441 kts 52°
2026-05-04 12:20 53.32797 -5.96092 37089 ft 441 kts 52°
2026-05-04 12:21 53.36496 -5.87998 37088 ft 441 kts 52°
2026-05-04 12:21 53.40214 -5.79835 37096 ft 441 kts 53°
2026-05-04 12:22 53.43928 -5.71654 37101 ft 441 kts 53°
2026-05-04 12:22 53.47645 -5.63444 37097 ft 441 kts 53°
2026-05-04 12:23 53.51317 -5.55183 37088 ft 441 kts 58°
2026-05-04 12:23 53.52657 -5.50555 37106 ft 441 kts 70°
2026-05-04 12:23 53.53438 -5.45564 37093 ft 443 kts 81°
2026-05-04 12:24 53.53631 -5.40457 36913 ft 447 kts 90°
2026-05-04 12:24 53.53484 -5.35233 36663 ft 446 kts 92°
2026-05-04 12:24 53.53291 -5.30051 36402 ft 442 kts 92°
2026-05-04 12:24 53.53122 -5.24919 36144 ft 439 kts 91°
2026-05-04 12:25 53.52985 -5.19802 35891 ft 437 kts 91°
2026-05-04 12:25 53.52862 -5.14717 35640 ft 434 kts 91°
2026-05-04 12:25 53.52717 -5.09664 35396 ft 432 kts 91°
2026-05-04 12:25 53.52551 -5.04627 35149 ft 431 kts 91°
2026-05-04 12:26 53.52381 -4.99611 34898 ft 429 kts 91°
2026-05-04 12:26 53.52213 -4.94613 34662 ft 427 kts 91°
2026-05-04 12:26 53.52046 -4.89639 34424 ft 426 kts 91°
2026-05-04 12:26 53.51878 -4.84672 34188 ft 425 kts 91°
2026-05-04 12:27 53.51711 -4.79721 33931 ft 424 kts 91°
2026-05-04 12:27 53.51542 -4.74787 33648 ft 423 kts 91°
2026-05-04 12:27 53.51372 -4.69846 33377 ft 423 kts 91°
2026-05-04 12:27 53.51201 -4.64916 32887 ft 423 kts 91°
2026-05-04 12:28 53.51028 -4.59971 32183 ft 423 kts 91°
2026-05-04 12:28 53.50852 -4.55028 31402 ft 425 kts 90°
2026-05-04 12:28 53.50674 -4.50079 30700 ft 425 kts 90°
2026-05-04 12:28 53.50494 -4.45132 30013 ft 424 kts 90°
2026-05-04 12:29 53.50312 -4.40171 29119 ft 426 kts 90°
2026-05-04 12:29 53.50128 -4.35210 28256 ft 426 kts 91°
2026-05-04 12:29 53.49941 -4.30232 27378 ft 428 kts 91°
2026-05-04 12:29 53.49753 -4.25301 26465 ft 429 kts 91°
2026-05-04 12:30 53.49558 -4.20211 25543 ft 434 kts 92°
2026-05-04 12:30 53.49362 -4.15170 24917 ft 444 kts 92°
2026-05-04 12:30 53.49158 -4.09967 24213 ft 447 kts 92°
2026-05-04 12:30 53.48952 -4.04785 23466 ft 443 kts 92°
2026-05-04 12:31 53.48742 -3.99657 22673 ft 438 kts 94°
2026-05-04 12:31 53.48300 -3.94626 21975 ft 433 kts 102°
2026-05-04 12:31 53.47411 -3.89819 21294 ft 429 kts 109°
2026-05-04 12:31 53.46404 -3.85131 20608 ft 425 kts 109°
2026-05-04 12:32 53.45408 -3.80489 19929 ft 421 kts 109°
2026-05-04 12:32 53.43482 -3.71309 18624 ft 414 kts 109°
2026-05-04 12:32 53.42540 -3.66770 17914 ft 411 kts 109°
2026-05-04 12:33 53.41605 -3.62258 17200 ft 408 kts 108°
2026-05-04 12:33 53.41051 -3.57646 16676 ft 402 kts 94°
2026-05-04 12:33 53.40889 -3.53003 16199 ft 401 kts 93°
2026-05-04 12:33 53.40727 -3.48347 15712 ft 409 kts 93°
2026-05-04 12:34 53.40555 -3.43507 15204 ft 409 kts 94°
2026-05-04 12:34 53.40364 -3.38862 14702 ft 402 kts 94°
2026-05-04 12:34 53.40152 -3.34219 14219 ft 395 kts 94°
2026-05-04 12:34 53.39940 -3.29677 13730 ft 388 kts 94°
2026-05-04 12:35 53.39735 -3.25201 13215 ft 382 kts 94°
2026-05-04 12:35 53.39533 -3.20803 12737 ft 376 kts 94°
2026-05-04 12:35 53.39347 -3.16511 12268 ft 361 kts 91°
2026-05-04 12:35 53.39671 -3.12457 11860 ft 345 kts 72°
2026-05-04 12:36 53.40667 -3.08905 11463 ft 331 kts 60°
2026-05-04 12:36 53.41810 -3.05632 11060 ft 320 kts 58°
2026-05-04 12:36 53.42937 -3.02483 10647 ft 311 kts 58°
2026-05-04 12:36 53.44035 -2.99405 10255 ft 303 kts 58°
2026-05-04 12:37 53.45092 -2.96405 9871 ft 295 kts 58°
2026-05-04 12:37 53.46116 -2.93474 9477 ft 287 kts 59°
2026-05-04 12:37 53.47106 -2.90621 9145 ft 279 kts 59°
2026-05-04 12:37 53.48068 -2.87843 8811 ft 272 kts 59°
2026-05-04 12:38 53.48689 -2.86042 8602 ft 267 kts 59°
2026-05-04 12:38 53.49607 -2.83379 8282 ft 260 kts 59°
2026-05-04 12:38 53.50511 -2.80751 7975 ft 260 kts 59°
2026-05-04 12:38 53.51414 -2.78124 7673 ft 260 kts 59°
2026-05-04 12:39 53.52070 -2.75302 7325 ft 263 kts 83°
2026-05-04 12:39 53.51827 -2.72328 7042 ft 256 kts 114°
2026-05-04 12:39 53.50765 -2.69994 6855 ft 252 kts 141°
2026-05-04 12:39 53.49227 -2.68612 6643 ft 252 kts 160°
2026-05-04 12:40 53.47556 -2.67686 6454 ft 254 kts 162°
2026-05-04 12:40 53.45860 -2.66806 6223 ft 256 kts 162°
2026-05-04 12:40 53.44160 -2.65925 6005 ft 256 kts 162°
2026-05-04 12:40 53.42460 -2.65037 5789 ft 256 kts 162°
2026-05-04 12:41 53.40766 -2.64145 5539 ft 255 kts 162°
2026-05-04 12:41 53.39078 -2.63250 5303 ft 254 kts 162°
2026-05-04 12:41 53.37403 -2.62360 5085 ft 252 kts 162°
2026-05-04 12:41 53.35736 -2.61472 4873 ft 250 kts 162°
2026-05-04 12:42 53.34087 -2.60592 4655 ft 248 kts 162°
2026-05-04 12:42 53.32455 -2.59722 4436 ft 243 kts 162°
2026-05-04 12:42 53.30877 -2.58879 4230 ft 234 kts 162°
2026-05-04 12:42 53.29353 -2.58066 4034 ft 226 kts 162°
2026-05-04 12:43 53.27896 -2.57289 3870 ft 221 kts 162°
2026-05-04 12:43 53.26440 -2.56514 3696 ft 218 kts 162°
2026-05-04 12:43 53.25015 -2.55756 3552 ft 211 kts 162°
2026-05-04 12:43 53.23697 -2.54780 3356 ft 207 kts 138°
2026-05-04 12:44 53.23056 -2.52719 3187 ft 204 kts 93°
2026-05-04 12:44 53.23468 -2.50528 3050 ft 202 kts 49°
2026-05-04 12:44 53.24488 -2.48883 2865 ft 206 kts 45°
2026-05-04 12:44 53.25430 -2.47134 2605 ft 198 kts 50°
2026-05-04 12:45 53.26275 -2.45401 2340 ft 186 kts 51°
2026-05-04 12:45 53.27066 -2.43760 2108 ft 176 kts 51°
2026-05-04 12:45 53.27821 -2.42193 1894 ft 170 kts 51°
2026-05-04 12:45 53.28559 -2.40665 1672 ft 166 kts 51°
2026-05-04 12:46 53.29267 -2.39200 1459 ft 157 kts 51°
2026-05-04 12:46 53.29938 -2.37810 1242 ft 151 kts 51°
2026-05-04 12:46 53.30589 -2.36464 1064 ft 150 kts 51°
2026-05-04 12:46 53.31248 -2.35108 883 ft 150 kts 50°
2026-05-04 12:47 53.31906 -2.33748 705 ft 151 kts 51°
2026-05-04 12:47 53.32562 -2.32371 467 ft 151 kts 50°
2026-05-04 12:47 53.33217 -2.31027 245 ft 148 kts 50°
2026-05-04 12:47 53.33813 -2.29793 219 ft 111 kts 51°
2026-05-04 12:48 53.34165 -2.29065 219 ft 55 kts 51°
2026-05-04 12:48 53.34366 -2.28677 220 ft 37 kts 40°
2026-05-04 12:48 53.34580 -2.28491 225 ft 33 kts 22°
2026-05-04 12:48 53.34760 -2.28302 226 ft 28 kts 52°
2026-05-04 12:49 53.34877 -2.28058 229 ft 26 kts 51°
2026-05-04 12:49 53.34986 -2.27832 232 ft 24 kts 51°
2026-05-04 12:49 53.35088 -2.27622 235 ft 23 kts 51°
2026-05-04 12:49 53.35186 -2.27419 237 ft 22 kts 51°
2026-05-04 12:50 53.35269 -2.27247 238 ft 13 kts 51°
2026-05-04 12:50 53.35330 -2.27193 239 ft 0 kts
2026-05-04 12:50 53.35337 -2.27192 239 ft 6 kts
2026-05-04 12:50 53.35418 -2.27252 240 ft 16 kts 321°
2026-05-04 12:51 53.35505 -2.27368 241 ft 16 kts 321°
2026-05-04 12:51 53.35577 -2.27460 240 ft 11 kts 336°
2026-05-04 12:51 53.35641 -2.27408 241 ft 11 kts 49°
2026-05-04 12:51 53.35689 -2.27310 242 ft 11 kts 51°
2026-05-04 12:52 53.35735 -2.27215 243 ft 10 kts 51°
2026-05-04 12:52 53.35780 -2.27122 244 ft 10 kts 51°
2026-05-04 12:52 53.35823 -2.27031 245 ft 10 kts 55°
2026-05-04 12:52 53.35855 -2.26932 245 ft 10 kts 54°
2026-05-04 12:53 53.35898 -2.26849 247 ft 9 kts 37°
2026-05-04 12:53 53.35960 -2.26846 247 ft 9 kts
2026-05-04 12:53 53.36009 -2.26785 248 ft 9 kts 50°
2026-05-04 12:53 53.36046 -2.26735 248 ft 6 kts 356°
2026-05-04 12:54 53.36084 -2.26790 243 ft 3 kts 314°
2026-05-04 12:54 53.36090 -2.26800 243 ft 0 kts 314°